Theta_e
322 322 322 321 322 322 321 321 322 322 322 322 322 322 323 324 325 323 323 323 322 323 324 323 322 325 321 320 320 322 322 322 323 322 322 320 316 316 320 323 325 324 322 323 326 327 327 327 326 327 328 329 329 328 329 328 327 326 326 326 325 325 324 324 323 323 323 323 322 322 321 320 320 320 322 321 321 321 321 321 321 322 322 322 322
322 322 320 321 322 322 322 322 322 323 323 323 322 322 324 324 322 322 323 322 323 323 324 324 323 323 321 320 324 322 322 322 321 321 321 321 317 315 317 321 324 322 318 319 323 323 323 323 326 328 328 328 328 328 327 327 326 325 325 324 325 324 324 324 322 322 321 321 321 320 320 320 320 320 320 320 321 321 321 321 321 321 321 321 321
323 322 321 322 322 321 323 323 322 323 324 324 323 323 324 323 324 321 320 322 323 322 321 321 321 323 321 321 322 323 324 324 322 321 320 320 318 317 316 318 322 322 316 317 321 321 321 323 327 327 327 327 328 327 325 324 323 323 323 325 324 324 323 323 322 321 321 320 319 320 319 319 319 320 320 320 321 321 320 320 320 320 320 320 320
324 324 323 323 322 322 323 324 323 323 324 323 323 324 323 322 323 323 322 321 322 321 320 320 321 320 320 320 323 324 324 322 321 320 318 318 317 317 317 316 317 319 318 316 318 319 318 322 325 325 324 325 327 326 324 323 323 323 324 324 324 323 322 321 320 320 319 319 320 319 319 319 319 319 319 320 320 320 319 319 319 319 319 319 319
325 325 322 324 323 324 323 323 323 323 324 325 324 323 322 322 324 323 322 323 322 322 324 322 321 321 321 321 322 323 322 321 320 319 317 316 318 316 315 315 313 314 314 315 315 317 316 319 322 321 321 322 324 325 324 322 323 325 325 325 322 320 321 319 318 318 318 318 319 319 319 318 318 319 319 319 318 318 318 318 318 318 319 319 319
327 324 324 323 323 323 322 322 322 323 322 323 322 323 323 321 320 321 319 319 321 320 318 317 318 319 318 318 322 322 319 320 318 317 316 316 317 313 309 308 307 311 309 312 314 316 313 317 320 319 319 320 321 322 322 322 324 324 323 322 320 320 319 318 318 318 318 318 318 318 317 318 318 318 318 318 317 317 317 317 317 317 318 318 317
327 326 325 324 323 322 322 322 324 324 324 325 324 322 321 322 320 319 319 319 319 318 318 318 318 318 318 318 320 321 321 319 317 315 315 315 313 309 309 307 306 307 310 307 309 314 314 313 316 317 317 316 318 320 321 322 322 320 319 319 319 318 318 318 318 318 317 317 317 316 317 317 317 318 318 318 317 316 316 317 316 318 318 317 316
326 327 325 325 323 323 323 324 324 322 322 323 323 320 321 322 321 320 318 317 318 318 319 321 319 318 317 317 319 318 319 317 316 315 315 311 309 308 308 306 305 303 305 302 305 308 315 314 312 313 315 315 315 316 320 321 319 318 317 317 318 318 318 317 316 317 317 316 316 316 316 316 317 317 317 317 317 317 317 316 317 317 316 317 317
326 326 326 326 323 324 323 325 325 323 322 323 322 322 320 321 320 319 319 318 318 318 317 317 318 317 316 317 317 317 317 316 314 314 311 308 307 305 305 304 303 306 302 301 301 303 311 313 313 312 312 313 313 314 315 319 318 317 316 315 316 317 316 315 316 316 315 315 315 316 316 316 315 316 316 316 316 316 316 316 315 314 314 315 315
327 328 326 325 325 325 324 325 325 324 322 322 320 323 322 320 320 321 321 320 317 317 316 316 318 319 316 316 317 316 316 315 313 311 308 306 305 303 301 302 302 301 302 301 301 303 304 308 311 310 310 311 311 312 312 314 316 315 314 314 315 316 315 315 315 314 314 314 314 315 316 315 315 315 315 315 314 314 314 315 314 314 314 315 313
329 328 327 326 324 324 323 324 325 324 322 320 319 320 320 320 320 320 322 322 319 317 317 316 318 318 317 316 317 316 314 312 313 311 308 305 303 303 303 300 300 301 301 301 301 301 301 300 300 300 304 311 311 311 311 310 312 312 312 312 314 314 315 315 314 314 314 312 313 314 315 315 314 314 313 313 313 312 313 313 314 314 314 314 314
329 329 328 326 324 324 324 324 324 323 322 320 319 319 320 320 320 321 320 318 317 316 317 316 315 317 313 316 315 315 314 312 311 311 307 303 302 301 300 300 300 300 300 300 301 300 300 299 299 299 299 305 311 310 309 308 308 309 309 310 312 313 313 314 314 313 313 313 313 313 313 313 313 313 312 312 312 312 312 313 313 313 313 313 313
328 329 328 325 325 324 325 323 324 325 323 322 321 322 323 322 320 318 317 316 317 317 317 316 314 313 312 313 314 313 312 313 311 311 305 303 301 300 300 299 298 298 299 299 300 299 298 299 298 298 298 299 299 307 308 308 308 307 306 306 310 312 312 313 314 313 312 312 312 312 312 311 311 311 312 312 312 312 312 312 313 313 313 313 313
327 328 327 326 325 323 324 324 324 324 323 322 323 320 322 320 318 317 317 315 317 318 317 314 312 311 308 308 308 310 312 313 311 308 305 303 302 300 299 297 296 296 298 298 298 298 299 298 298 298 298 297 298 298 300 302 303 304 304 304 306 310 312 313 313 311 311 311 312 312 311 311 311 312 311 311 311 312 312 312 312 312 312 312 312
328 327 328 327 326 323 323 324 324 324 322 322 323 322 322 320 318 315 314 318 320 319 317 314 309 308 308 306 303 302 305 307 308 308 305 302 301 298 297 295 296 297 296 297 297 298 299 298 299 298 298 298 298 299 300 300 299 301 300 301 305 307 310 311 311 310 310 310 311 311 310 310 310 311 311 311 310 311 311 311 311 311 312 311 312
329 328 328 327 326 325 324 322 324 324 323 322 320 321 323 322 321 318 316 315 318 316 316 314 310 307 304 303 305 303 300 305 303 304 301 301 299 296 295 295 295 296 296 295 296 296 297 297 298 299 299 298 298 298 300 296 299 299 297 298 300 304 307 309 310 310 309 310 311 310 309 309 310 310 309 310 310 310 310 310 310 311 310 311 311
330 330 328 327 327 327 325 324 323 324 325 323 321 322 323 322 321 319 319 316 316 314 313 313 312 309 306 304 299 298 299 302 299 299 301 301 298 296 294 294 295 295 294 295 296 296 296 296 296 296 297 297 297 297 297 296 294 295 293 296 299 301 304 306 308 309 309 309 310 310 309 309 308 308 309 309 310 310 310 310 310 309 310 310 309
331 331 329 327 327 327 326 325 324 323 324 322 323 321 322 322 322 321 319 320 316 315 309 310 310 308 308 306 304 301 296 297 299 296 299 301 299 296 295 295 295 295 294 293 295 295 295 296 295 294 295 296 297 296 295 294 294 292 292 295 299 300 302 303 305 307 309 309 309 309 309 308 307 307 307 308 308 308 308 309 309 309 308 309 309
330 330 330 328 328 328 327 326 325 325 324 323 322 323 323 322 322 320 321 320 315 310 310 308 308 307 308 305 304 304 304 300 296 293 290 296 297 296 296 296 296 294 294 293 294 294 295 295 295 294 293 296 296 295 294 293 294 294 296 297 299 298 300 300 302 304 305 307 306 306 308 308 307 306 307 307 307 307 308 308 309 308 309 308 308
330 329 329 328 327 327 327 326 325 325 323 323 322 322 322 321 322 322 320 318 315 311 308 309 307 305 305 303 303 304 301 298 295 292 290 290 292 297 297 295 295 294 293 294 293 294 294 296 294 293 292 295 295 294 292 290 289 289 292 297 298 298 299 300 299 300 301 303 304 304 306 306 306 306 307 307 307 307 307 307 308 308 308 308 308
330 329 328 329 326 327 326 325 325 323 323 323 322 322 321 320 321 321 318 317 316 314 310 308 308 304 303 300 300 299 298 296 294 293 291 289 292 293 292 294 294 295 293 293 292 293 294 295 294 294 292 294 295 293 291 289 289 288 294 296 297 298 299 300 299 299 298 298 299 301 302 303 304 305 306 307 306 306 306 307 306 307 306 306 307
329 328 327 328 327 327 326 325 324 323 320 322 321 320 320 321 321 320 319 317 315 313 309 308 310 306 305 303 300 297 296 295 294 293 294 291 287 287 290 291 289 290 293 294 292 293 294 294 294 293 293 294 293 291 290 289 289 290 293 295 295 297 298 299 299 298 298 297 297 297 298 300 302 305 306 306 306 306 306 306 306 306 306 306 304
328 328 328 327 327 326 326 325 325 322 321 322 320 320 320 321 321 319 318 316 311 309 308 306 305 303 302 302 300 297 296 294 294 293 292 290 292 292 292 291 289 289 291 292 292 292 293 295 293 291 293 293 292 291 289 288 291 293 294 294 294 295 296 297 297 297 297 297 297 297 297 297 299 301 304 305 305 306 306 306 305 305 305 305 307
328 327 326 326 326 325 325 325 324 322 323 323 322 320 319 319 319 317 316 314 310 309 306 302 302 302 300 300 300 299 296 298 297 295 294 293 291 288 289 289 288 288 293 292 293 292 292 294 293 290 292 292 292 289 288 288 289 293 290 292 293 294 295 296 297 297 297 296 295 296 296 297 298 299 300 302 303 304 305 305 306 305 304 304 308
326 325 325 325 324 324 324 324 322 322 322 322 321 319 317 316 315 315 314 312 308 308 305 303 301 301 299 297 297 297 295 295 295 295 293 291 290 288 288 289 286 288 289 291 290 291 291 292 290 291 292 292 291 289 288 288 286 292 292 289 293 293 294 294 295 296 296 295 295 295 295 296 298 298 298 299 299 300 302 304 305 306 305 306 306
325 325 325 325 323 324 323 322 321 321 322 321 319 317 315 314 313 313 312 311 307 306 304 301 299 298 298 296 295 294 294 295 294 294 292 291 289 287 286 286 288 287 289 290 289 289 290 291 290 291 290 289 288 287 287 287 287 292 292 289 289 292 293 293 294 295 295 295 295 295 295 295 296 297 297 298 298 299 299 301 303 304 305 306 306
325 325 323 323 322 322 321 321 320 320 320 319 317 316 315 313 311 309 309 307 306 304 303 302 300 297 296 295 294 293 293 293 292 292 291 291 289 288 286 285 283 285 286 286 289 287 287 290 289 290 290 288 288 287 287 286 289 292 291 287 286 291 292 292 293 294 294 294 294 295 295 295 296 296 296 296 298 297 298 300 301 301 301 303 305
324 323 322 322 322 321 319 319 319 318 317 316 316 315 313 311 308 307 306 305 305 302 300 299 297 296 295 294 293 292 292 292 292 291 291 291 291 290 288 286 283 280 284 284 283 285 289 288 289 290 289 288 288 287 289 289 287 291 289 286 286 286 291 291 293 293 293 293 293 294 294 295 295 296 295 295 295 295 297 299 298 300 299 300 303
322 321 321 321 321 320 318 316 316 316 315 313 313 313 312 309 307 306 304 302 302 299 298 297 295 294 293 292 291 291 291 291 290 291 291 290 289 288 288 286 285 282 280 281 281 283 286 288 286 288 287 287 288 288 286 286 289 288 285 285 285 284 290 291 291 292 292 292 293 294 294 294 294 294 294 294 294 295 296 296 296 297 298 299 298
323 321 320 319 318 314 317 314 314 313 313 312 312 311 310 306 307 305 302 300 298 297 297 295 293 292 291 290 290 289 290 290 289 289 288 288 287 288 286 287 286 284 282 280 280 284 284 286 286 286 286 286 288 288 287 285 291 288 285 284 285 284 290 289 290 290 291 292 293 293 293 293 293 293 293 293 293 295 296 297 296 297 297 298 299
322 321 320 318 315 313 314 312 312 312 311 310 309 308 306 304 302 299 298 297 296 295 294 293 292 291 289 289 289 289 289 289 289 288 287 288 287 286 286 288 287 286 285 283 280 282 285 284 285 286 286 286 287 285 286 286 288 287 284 284 283 288 289 287 288 289 290 291 292 292 293 293 293 293 293 293 293 294 295 296 296 296 296 297 299
323 321 319 317 314 312 311 311 311 310 309 307 306 305 303 301 298 296 296 295 292 291 291 291 292 290 288 288 288 288 287 287 287 287 286 286 286 287 286 287 286 285 285 283 281 280 284 284 285 285 285 285 285 284 283 285 287 288 283 283 283 286 284 283 286 288 289 290 291 291 291 292 292 292 292 292 293 294 294 295 295 295 296 297 297
320 318 316 316 314 312 311 310 310 309 307 305 304 302 299 297 295 295 293 292 290 289 289 289 288 288 287 287 287 287 287 286 286 286 286 285 285 285 285 285 285 285 284 283 282 281 281 283 285 285 285 285 283 284 282 282 282 283 285 282 282 282 282 282 282 286 287 289 290 290 290 290 290 290 291 290 291 292 292 293 293 293 294 295 295
316 316 315 314 312 311 310 309 309 308 307 305 303 300 297 295 294 294 291 290 288 288 288 287 287 288 287 287 286 286 285 285 285 285 285 285 284 284 284 284 284 284 283 283 280 281 279 280 281 283 283 284 281 282 282 281 280 281 281 281 281 281 281 281 281 282 287 288 289 289 289 289 289 289 289 289 290 290 292 293 292 293 294 294 294
313 313 312 311 310 310 309 308 308 306 305 303 301 299 296 295 293 292 290 288 288 287 287 287 287 287 286 286 286 286 287 285 284 284 284 284 284 284 284 284 283 283 282 282 280 280 278 279 280 281 281 282 282 281 281 282 281 281 279 279 281 282 281 281 281 282 286 287 288 287 287 288 288 288 288 289 289 290 290 291 291 292 293 294 293
310 307 309 309 308 307 307 305 305 304 302 300 299 297 295 293 292 291 288 288 287 287 287 287 287 286 285 285 285 286 285 284 284 284 285 284 284 284 283 283 283 283 282 281 281 279 279 280 279 281 282 280 280 280 282 280 280 279 279 279 280 279 279 281 280 280 284 286 286 286 286 286 287 287 288 288 288 289 289 290 290 291 291 292 292
308 306 305 305 306 306 305 305 304 302 301 299 298 295 293 292 291 290 288 287 286 286 286 287 287 285 285 285 285 285 285 284 284 284 284 284 284 284 284 283 283 283 283 282 280 280 279 279 280 281 281 279 281 280 279 279 279 278 278 278 278 278 279 279 280 282 284 285 284 284 284 285 285 286 286 287 287 288 288 288 289 289 290 291 291
304 304 305 303 304 304 303 303 303 301 299 298 296 294 292 290 289 288 287 286 286 286 286 286 286 285 285 285 285 285 285 284 284 284 284 284 284 284 283 283 283 282 281 280 280 280 280 280 279 279 279 280 278 279 279 279 278 277 277 277 277 277 278 278 279 281 281 280 280 280 281 282 283 284 285 285 286 287 287 287 287 288 289 290 291
302 301 299 301 301 303 302 301 300 298 297 296 294 292 291 290 289 287 286 286 286 286 286 286 286 285 285 285 285 285 285 284 284 284 284 284 284 283 283 282 282 281 280 280 280 280 279 279 279 279 278 278 279 277 277 278 277 277 276 275 274 278 278 278 277 278 279 279 280 281 281 281 282 281 283 283 284 285 286 286 286 288 288 289 290
298 298 299 299 298 298 299 300 299 297 297 295 293 291 290 289 288 287 287 286 286 285 285 285 285 285 285 285 285 285 285 285 284 284 285 284 284 283 283 282 281 281 280 280 280 279 279 279 278 277 277 278 277 277 278 276 275 275 276 275 274 275 277 278 276 275 275 276 276 276 279 279 279 280 282 282 282 284 283 283 285 286 287 289 289
295 296 297 297 296 296 295 295 295 295 296 295 293 291 289 288 287 287 286 286 285 285 284 284 284 284 284 284 284 284 284 285 286 286 286 286 284 283 282 282 281 280 279 280 280 279 277 278 277 278 276 276 276 276 275 275 275 274 275 276 276 277 278 277 276 274 274 275 275 275 275 276 276 276 276 276 278 280 280 282 283 286 287 289 289
293 293 294 294 295 296 295 294 294 294 294 294 290 291 290 288 287 287 286 285 285 284 284 283 283 283 283 283 283 284 284 285 285 286 287 287 286 284 283 282 281 280 279 278 277 276 276 275 275 276 274 273 276 275 274 275 275 273 275 276 276 277 277 275 274 274 273 275 274 274 274 274 275 274 275 275 277 278 278 279 282 285 286 288 288
291 291 292 293 293 293 294 294 294 294 294 293 290 292 292 291 288 286 285 285 284 284 283 283 282 282 282 282 282 283 283 283 283 286 286 285 286 286 286 285 284 281 279 277 277 277 274 273 274 274 274 274 275 274 276 275 273 275 276 277 277 276 274 273 271 274 275 275 274 273 273 272 273 273 274 274 275 276 277 278 284 286 286 287 287
290 289 291 292 292 291 291 291 292 293 293 290 292 292 292 291 289 286 285 284 284 283 283 282 282 282 281 281 281 281 281 281 282 283 284 285 285 285 284 284 284 284 284 279 277 275 275 272 272 273 275 273 274 275 273 273 273 275 277 277 277 275 274 273 273 272 276 276 273 272 272 273 271 272 273 274 275 276 277 281 285 286 286 286 286
288 290 291 290 290 290 290 290 290 290 289 290 292 292 291 291 290 287 285 284 283 283 282 282 282 281 281 280 280 280 280 282 281 281 281 282 284 284 284 283 283 283 284 284 283 278 277 274 273 273 276 275 275 275 276 276 277 275 276 276 276 275 275 273 273 274 275 276 272 270 270 271 271 272 271 274 275 275 276 279 284 285 286 285 285
289 289 288 289 289 289 290 290 289 289 288 289 292 292 291 291 290 287 284 284 283 282 282 282 282 281 280 280 279 279 280 281 280 280 281 281 281 281 281 281 281 282 283 283 283 283 281 277 275 274 276 277 275 277 278 278 277 276 276 275 276 274 274 273 275 275 275 273 271 270 268 268 270 271 271 272 274 275 275 279 283 284 285 285 284
288 289 289 288 289 288 288 288 288 287 287 290 291 291 291 291 290 287 284 284 283 282 282 282 281 281 280 280 280 280 280 280 280 281 280 280 280 281 280 280 280 280 280 280 280 279 279 279 277 277 277 278 278 277 278 279 278 278 278 277 276 275 275 276 274 272 271 271 271 271 267 270 270 270 271 272 273 273 274 277 282 283 284 283 283
287 288 287 287 287 287 288 288 287 287 287 290 291 291 291 291 290 284 283 283 282 282 281 281 281 281 281 280 280 280 280 280 282 283 282 281 281 280 280 280 279 279 279 281 282 282 279 278 277 277 278 279 282 281 281 280 280 279 278 276 276 275 273 271 269 269 267 270 272 271 270 269 269 270 271 272 272 272 273 273 279 282 282 282 282
287 287 287 287 287 287 286 287 287 286 286 288 290 290 290 291 288 284 283 283 282 281 281 281 281 280 280 280 280 279 279 279 282 284 284 283 281 281 279 278 278 278 278 279 282 283 283 283 283 283 283 283 283 283 282 282 282 279 275 273 272 272 270 269 269 268 267 269 271 273 268 267 269 271 271 272 271 271 272 271 269 279 281 281 280
287 287 286 286 286 286 286 286 287 286 286 287 289 290 290 290 286 284 283 282 281 281 280 280 280 280 280 281 281 280 279 279 283 285 285 284 281 280 278 277 277 276 277 278 278 279 283 283 282 283 282 282 281 281 281 281 281 278 272 270 272 271 270 270 268 269 269 267 268 272 267 266 270 272 270 271 272 268 270 269 273 272 277 277 278
286 286 286 286 286 286 286 286 286 286 286 286 288 289 290 289 286 283 283 282 280 280 279 279 279 279 279 281 281 280 280 281 284 286 286 284 281 280 279 277 276 276 276 277 277 276 276 277 276 275 273 276 276 274 275 279 279 278 276 275 274 273 270 270 270 269 267 264 266 271 269 270 270 271 270 268 268 271 269 270 272 267 270 271 271
Wind_Speed
5 5 4 4 3 1 3 4 3 4 1 2 2 3 3 2 1 3 3 4 2 1 1 0 1 1 5 4 2 3 3 2 4 3 4 6 5 7 10 8 9 12 13 13 13 13 13 13 13 13 14 15 15 16 18 17 19 19 20 19 19 20 20 20 19 20 20 20 20 20 21 21 21 22 22 22 23 23 23 23 24 24 24 24 24
5 5 5 4 4 3 2 3 3 5 4 3 5 2 1 2 2 3 4 4 5 3 1 1 1 1 3 3 0 3 3 3 4 4 4 4 5 6 9 9 9 12 13 13 13 13 14 14 14 14 14 15 16 16 17 17 18 19 19 19 20 20 20 20 19 19 19 19 19 20 21 21 21 22 22 23 23 23 23 24 24 24 24 25 25
6 5 4 5 4 4 4 4 3 5 5 3 1 1 1 1 4 2 2 2 5 5 3 2 2 1 3 1 2 3 1 4 6 5 4 3 4 4 5 10 9 11 12 14 13 14 14 14 14 14 15 15 16 17 17 18 19 19 19 20 20 20 20 19 19 19 19 19 20 20 21 22 22 22 23 23 23 23 23 23 23 23 24 24 25
6 5 5 5 5 6 5 5 6 3 3 2 3 3 3 2 1 2 2 2 3 4 1 1 1 2 0 2 2 1 2 6 5 4 2 1 3 4 5 5 7 10 10 14 14 14 14 14 15 15 15 15 16 17 18 18 19 19 19 19 20 19 19 19 19 19 20 21 21 22 22 23 23 23 23 23 23 23 23 24 24 24 26 27 28
4 5 4 7 6 6 5 5 2 3 3 4 1 0 2 4 4 3 3 4 4 3 1 1 1 0 1 1 1 1 4 6 5 4 2 3 4 5 6 4 4 8 8 13 13 13 14 14 15 15 15 16 17 18 18 18 19 19 19 19 19 19 19 19 20 20 21 22 22 22 22 22 23 23 23 23 23 23 24 25 26 27 28 28 28
5 3 2 3 4 4 2 4 3 4 2 3 4 3 5 4 1 1 2 2 1 3 2 2 3 1 1 3 1 2 4 5 5 4 2 4 4 6 6 5 3 5 4 10 12 10 13 14 14 15 16 17 18 18 18 19 19 18 18 18 19 20 20 20 21 21 21 21 21 22 22 22 22 22 22 23 23 25 26 26 27 27 28 28 29
5 6 4 4 4 4 4 2 2 4 3 3 5 4 3 4 2 2 2 4 1 5 3 3 3 1 2 2 3 3 5 5 5 3 3 4 6 5 6 4 4 5 4 4 8 8 11 14 14 15 16 17 18 17 18 18 18 19 19 19 19 20 20 20 20 20 21 21 21 22 22 22 22 22 22 23 24 25 26 26 27 26 26 28 29
4 5 6 5 4 6 5 5 3 4 3 3 2 1 3 1 3 1 0 3 2 1 3 4 2 2 1 2 4 2 5 5 5 4 5 6 4 4 6 4 5 4 5 4 4 5 8 10 14 15 15 15 17 18 17 17 18 19 19 20 20 20 20 20 20 20 20 21 21 21 21 21 22 22 23 23 24 25 25 26 25 26 29 28 29
4 4 5 5 4 4 4 4 4 3 2 3 3 3 2 2 0 2 1 0 1 2 3 3 3 2 3 3 1 3 5 5 3 4 5 4 4 4 4 4 4 5 5 5 3 3 6 8 11 12 12 12 14 17 17 16 17 18 20 20 20 20 20 19 19 20 20 20 20 21 21 22 22 23 24 24 25 25 26 26 27 30 30 30 31
4 4 4 4 4 4 2 3 5 4 4 1 2 2 3 3 0 0 0 0 2 3 3 3 3 2 1 1 1 5 4 4 3 6 5 4 5 5 4 4 4 4 5 4 4 4 3 5 8 9 9 10 12 14 17 16 15 18 19 21 20 20 20 19 19 20 20 20 21 21 22 23 24 24 25 25 25 26 27 27 28 30 30 29 33
5 4 4 4 3 3 3 2 4 5 3 3 2 2 3 2 0 1 1 4 3 3 0 1 3 3 3 2 5 4 3 3 4 5 4 4 4 4 5 4 3 4 4 4 4 4 5 4 4 4 5 9 10 13 15 15 13 16 19 21 20 20 20 20 20 20 20 21 21 22 22 23 24 25 25 26 27 28 28 28 29 29 30 31 32
6 5 5 5 4 4 4 3 4 4 4 3 3 3 4 2 2 1 1 1 2 2 0 1 3 5 1 5 4 4 3 3 4 4 4 5 4 5 4 4 4 3 4 4 5 4 5 4 4 5 4 5 9 11 13 13 12 14 18 21 20 20 20 20 20 20 21 21 22 23 23 24 25 26 26 27 28 29 29 29 30 31 32 32 33
6 6 6 6 5 4 4 4 4 5 4 4 4 4 4 2 1 2 2 1 0 1 0 1 1 4 1 5 4 3 3 1 4 4 4 4 4 4 4 5 4 4 3 4 5 4 4 4 4 4 4 4 3 7 10 9 9 14 18 20 20 20 20 20 20 21 21 22 23 24 25 25 26 26 27 27 28 29 30 31 31 31 32 32 33
8 6 7 6 5 5 5 5 5 6 5 4 3 5 4 3 3 1 1 1 0 1 1 1 1 2 3 2 2 1 1 1 5 4 5 5 4 3 4 4 4 4 4 4 4 4 4 3 4 3 3 3 3 3 5 5 6 13 17 20 20 20 21 20 21 21 22 23 23 24 24 25 26 26 27 28 29 30 30 31 32 32 33 33 33
7 7 6 6 7 6 6 6 6 7 6 5 5 5 5 5 4 4 2 1 1 0 0 2 1 2 0 4 3 2 1 1 1 4 5 4 3 4 4 4 4 4 4 4 3 4 4 3 3 2 2 2 3 4 4 5 4 11 15 19 20 21 21 20 21 21 22 23 24 24 25 26 26 27 28 29 30 30 31 31 32 33 33 34 35
7 7 6 6 6 6 5 6 6 6 7 6 4 5 5 5 6 5 4 2 3 2 1 1 1 1 1 3 5 5 2 4 3 1 5 5 5 4 4 4 4 4 4 4 3 3 3 3 2 1 1 2 4 4 5 4 7 8 11 12 18 20 20 20 21 21 22 24 24 24 25 26 27 27 28 29 30 31 32 32 33 33 34 35 35
7 8 8 7 6 6 6 5 6 6 6 6 6 6 6 6 7 6 6 5 5 2 3 1 1 2 3 1 2 2 4 4 5 1 3 5 4 4 3 3 3 2 2 1 2 3 3 3 3 3 3 4 4 4 4 4 4 4 8 11 18 20 20 20 20 21 22 23 24 25 26 27 27 28 29 29 30 31 31 32 33 33 34 33 33
8 9 9 8 7 6 6 6 5 6 6 6 6 6 6 7 8 7 6 7 4 5 3 2 3 1 1 1 0 2 5 4 5 3 0 0 5 4 3 2 1 1 2 1 3 3 2 3 3 4 3 4 4 4 4 4 4 5 6 9 20 19 19 20 20 21 23 24 25 26 27 27 27 28 29 30 30 31 32 32 33 33 33 33 34
9 9 9 9 8 7 7 6 6 6 6 6 7 6 7 7 7 7 8 7 4 4 6 5 1 1 1 2 2 1 0 4 4 5 4 0 2 3 1 2 1 1 1 1 2 3 2 2 3 3 3 4 4 4 4 5 6 6 11 18 20 20 20 21 21 22 23 24 26 26 26 26 27 28 29 29 30 31 32 32 33 33 32 32 31
9 9 9 9 9 8 7 7 7 7 7 7 7 6 6 6 7 7 6 6 6 6 5 6 7 3 2 2 1 0 3 3 3 5 6 6 3 1 0 4 3 1 1 1 2 3 1 1 2 2 3 4 5 4 4 4 4 5 6 19 21 21 21 21 21 21 22 23 25 25 25 25 27 28 29 30 30 31 31 31 32 32 33 32 32
9 9 9 10 10 9 8 8 7 6 6 6 6 7 8 7 7 6 6 5 6 5 3 6 6 5 4 2 3 2 2 2 2 3 2 4 3 5 3 2 1 3 3 1 2 1 1 1 1 1 3 4 5 4 5 6 6 6 8 19 22 22 21 21 20 20 21 22 22 23 24 25 27 28 29 30 30 31 31 31 31 31 31 31 32
9 9 9 9 10 10 8 8 8 7 7 7 6 6 6 7 8 7 6 6 4 6 5 5 6 6 7 6 5 3 2 1 1 2 3 2 5 5 3 2 2 3 3 1 1 4 1 1 1 3 4 5 4 5 6 6 6 6 9 17 20 20 19 19 19 20 20 21 21 21 23 24 27 28 29 30 29 29 29 30 30 31 31 31 31
9 10 11 9 10 10 9 8 8 8 8 7 7 7 7 7 7 7 6 6 5 5 4 2 4 7 6 7 7 7 6 4 5 2 3 2 1 2 2 2 2 2 2 3 0 1 2 0 2 2 5 5 5 6 6 6 6 7 11 14 19 19 18 18 18 20 20 19 20 21 23 25 26 28 28 28 29 29 29 29 30 31 32 32 32
10 10 10 10 10 10 9 9 9 8 8 7 7 7 7 7 7 6 6 5 4 5 4 4 5 6 6 6 6 5 2 4 5 5 5 3 5 3 2 0 1 2 2 1 2 0 1 0 1 3 4 6 5 6 6 6 7 9 7 11 17 17 17 17 19 20 19 19 20 21 23 25 25 26 27 27 27 28 28 29 30 31 31 32 32
11 11 11 12 10 10 10 9 8 8 8 8 8 8 7 7 7 6 6 5 5 7 7 6 6 7 6 3 5 5 5 3 5 5 4 3 4 2 1 1 1 1 1 2 2 1 2 1 2 3 5 6 5 6 5 6 6 6 8 7 14 17 17 18 20 20 19 19 20 21 23 24 25 25 26 26 27 28 29 29 30 31 31 32 33
12 13 11 12 9 10 9 9 8 9 9 9 9 8 8 7 7 7 6 5 5 6 7 6 4 4 4 5 4 6 5 4 4 5 4 3 2 3 1 1 0 3 2 1 1 2 1 0 2 4 6 6 5 5 5 6 6 5 11 8 9 14 17 19 20 18 18 18 19 21 22 23 24 24 25 26 27 27 27 29 29 32 34 33 32
12 10 9 10 10 9 9 10 10 10 9 8 9 9 8 7 6 7 6 5 6 7 6 7 6 6 5 5 6 6 5 4 5 5 5 3 3 4 3 1 2 0 1 0 1 2 2 0 1 6 5 5 5 5 5 4 4 7 9 7 6 11 14 18 18 17 17 18 19 20 22 23 23 24 24 25 26 26 27 27 28 31 32 32 33
8 8 8 10 11 11 10 10 10 10 10 10 10 9 8 8 7 7 7 3 6 6 6 7 6 6 6 6 7 5 4 5 5 5 5 4 4 4 4 4 5 0 1 1 1 0 1 2 5 3 5 5 5 4 6 5 4 6 8 5 5 6 11 17 17 16 17 17 19 20 22 22 23 23 24 24 24 25 26 27 28 29 28 30 33
8 8 9 9 10 11 11 10 9 10 9 9 9 8 8 7 8 8 7 5 6 6 6 7 6 6 6 6 7 6 5 5 5 5 4 4 4 4 4 4 4 5 2 1 2 2 0 2 2 2 5 5 5 6 3 3 3 5 4 4 4 4 8 16 16 16 16 17 19 20 22 22 22 23 23 24 24 25 26 27 27 29 30 31 31
9 8 9 10 9 9 10 10 9 9 10 9 8 8 7 6 8 7 7 6 6 5 5 7 6 6 6 7 6 6 5 6 5 4 4 4 4 3 3 3 3 5 4 3 3 2 1 1 2 1 1 4 5 4 2 3 5 4 3 4 4 3 10 15 15 16 16 18 19 21 22 22 22 22 23 23 24 24 24 26 27 27 29 31 32
9 10 10 10 9 8 8 9 9 9 9 9 9 8 7 7 7 7 6 7 7 6 6 7 6 7 8 8 6 6 6 6 5 4 4 4 3 3 3 2 2 2 3 3 1 2 2 0 2 3 3 3 3 3 3 3 4 3 4 4 4 6 9 8 14 15 16 18 20 21 22 22 22 22 22 23 23 24 25 25 25 26 29 30 31
9 9 9 10 10 10 8 9 9 9 9 8 8 9 8 7 7 7 7 7 7 7 6 6 6 7 8 9 7 7 6 6 5 5 4 3 3 4 3 2 2 2 2 3 3 4 1 1 0 2 3 3 2 3 2 2 3 5 4 4 3 5 5 5 9 15 16 18 20 20 21 22 22 22 22 22 22 23 24 25 25 26 28 29 30
8 9 9 10 10 11 10 10 11 10 10 9 8 8 7 7 7 7 7 8 8 6 7 7 5 6 7 8 7 6 6 6 6 5 5 4 3 4 3 2 3 3 3 2 5 4 4 1 4 3 3 4 3 1 2 2 3 3 4 4 2 4 4 6 6 10 16 18 18 19 20 22 22 22 22 22 22 22 23 24 24 26 27 28 29
8 9 10 9 9 10 10 10 10 10 10 11 11 10 10 9 7 6 8 9 8 7 7 7 7 6 7 9 7 7 5 6 6 5 5 5 4 4 3 2 2 3 3 3 3 3 4 3 3 3 2 2 2 1 2 2 4 4 4 4 3 3 3 6 7 7 16 18 18 18 20 21 21 21 22 22 21 22 22 23 24 26 28 29 29
6 8 9 8 9 9 9 10 11 10 10 9 8 10 10 11 11 9 8 10 10 9 9 8 8 7 8 8 8 6 5 6 5 5 4 4 4 5 4 3 3 3 3 3 2 3 2 3 1 2 2 2 1 2 2 3 3 4 3 3 4 3 3 4 5 5 12 18 18 19 21 21 21 21 21 21 21 21 22 23 24 25 28 28 29
7 5 7 9 9 9 10 10 10 10 10 10 9 9 11 12 12 11 10 10 9 9 10 9 9 9 10 9 7 7 7 7 6 6 5 4 5 4 4 3 4 3 3 3 2 3 2 0 2 1 2 2 2 2 2 3 3 3 1 3 4 3 4 4 4 4 9 15 15 19 21 20 20 21 22 21 20 21 22 23 24 25 26 27 28
8 8 7 6 9 9 10 11 11 11 11 11 12 10 9 10 12 12 11 10 10 9 9 9 9 10 10 10 9 8 8 8 6 6 5 5 4 5 5 4 5 4 3 3 3 3 3 2 3 2 2 1 1 2 2 4 3 2 1 3 3 3 4 5 5 5 10 12 13 18 18 19 20 21 22 21 21 21 22 23 24 25 25 26 27
7 7 9 8 9 10 9 9 9 9 9 10 12 12 12 11 10 10 10 10 10 9 8 8 8 8 10 9 9 9 9 9 8 6 6 6 5 5 5 5 5 4 4 3 4 4 3 3 3 4 1 0 2 2 1 4 4 2 2 3 3 3 4 6 5 5 4 3 4 8 11 11 15 19 20 19 20 20 21 22 22 24 25 25 26
9 8 6 8 8 10 11 10 10 10 9 8 8 10 11 11 12 11 10 10 9 8 7 8 7 7 8 8 9 9 9 8 9 9 8 6 6 6 6 5 5 4 4 4 4 3 2 2 3 3 2 2 1 2 2 3 3 2 4 6 3 3 4 6 7 6 4 4 7 11 11 12 14 13 17 18 19 19 19 19 20 22 23 24 25
6 8 9 9 8 7 8 10 11 10 11 10 10 10 11 12 11 10 11 11 11 9 8 7 7 7 7 7 8 7 7 7 8 7 8 8 6 6 5 5 5 5 4 4 3 2 2 2 3 3 1 0 4 2 2 2 2 0 3 5 8 9 7 5 4 5 3 5 8 7 7 7 7 11 14 15 17 20 20 18 19 21 23 23 24
5 6 6 7 7 7 6 6 7 9 11 11 10 11 11 11 11 11 11 11 12 11 8 7 6 7 6 6 6 6 6 8 10 8 7 6 7 7 6 6 5 6 4 4 4 2 2 2 3 1 1 2 2 2 4 3 5 4 4 5 4 4 6 6 5 1 2 6 7 6 6 6 8 7 7 8 9 15 14 18 15 20 23 23 24
5 4 5 5 7 8 9 8 7 8 9 8 10 16 15 13 12 10 10 10 11 11 11 9 7 6 7 6 6 9 10 9 10 10 8 7 6 5 7 7 7 6 5 5 4 4 4 4 2 1 0 2 3 1 1 1 1 2 5 5 7 7 6 4 2 1 3 7 8 9 6 3 6 7 6 8 8 9 8 9 10 15 19 22 23
4 4 5 5 6 5 6 9 10 9 9 9 15 15 15 16 12 11 12 11 10 11 11 11 11 9 7 6 6 8 8 8 8 9 8 8 7 9 8 7 5 7 7 7 5 4 4 3 2 1 1 2 3 1 1 1 2 3 4 5 6 6 7 9 9 6 2 8 7 7 8 4 4 6 7 6 7 7 9 9 18 20 21 21 22
4 4 5 5 5 4 4 4 5 6 7 11 19 19 18 18 14 12 11 11 10 10 10 10 9 9 9 8 6 5 6 7 7 6 7 9 9 9 9 8 7 6 6 5 6 6 5 5 3 3 2 3 2 1 1 2 3 3 3 4 4 5 7 6 6 7 7 7 8 7 9 4 3 4 7 6 7 7 9 15 19 21 21 21 21
4 5 6 6 6 5 6 6 6 5 4 9 15 18 18 19 17 13 9 11 12 11 10 10 10 10 9 8 7 6 5 9 7 6 6 7 8 10 9 8 7 7 7 8 6 4 3 4 5 4 4 3 1 1 1 1 3 4 5 4 3 3 5 7 7 7 8 6 4 4 8 6 4 6 7 7 7 7 9 13 18 20 20 20 20
6 6 4 6 5 6 7 7 6 5 5 11 15 16 17 18 18 13 9 11 10 11 11 11 10 10 10 10 9 8 7 8 7 8 7 6 6 6 5 4 4 5 8 8 8 8 6 5 5 5 4 2 1 1 2 2 2 3 4 3 3 4 5 6 8 7 7 4 5 6 5 4 4 7 7 8 7 8 7 12 16 19 19 20 20
6 7 6 6 7 6 6 6 6 5 5 11 15 16 16 17 16 11 8 7 8 8 8 9 10 11 11 9 10 10 10 9 8 10 9 8 7 6 5 5 6 6 5 5 5 4 4 4 5 5 4 1 2 1 1 0 2 4 1 2 3 4 6 5 4 4 5 2 5 4 4 6 5 7 7 7 8 8 7 9 12 17 19 19 19
3 4 3 3 5 5 6 6 5 6 4 11 13 14 15 16 15 7 7 8 8 8 8 8 8 8 8 9 9 9 9 9 11 16 11 8 7 8 7 6 5 4 4 5 7 6 5 4 4 3 1 1 3 1 2 3 2 1 1 2 3 2 3 5 6 4 2 4 3 2 3 7 4 6 9 6 6 8 8 7 8 16 18 19 19
4 5 5 4 4 5 5 5 6 5 5 10 14 15 16 18 12 7 7 7 7 9 9 8 8 8 8 8 8 8 9 9 13 17 16 12 7 8 7 6 5 4 4 2 6 8 8 8 7 7 7 7 7 8 7 8 5 1 3 1 1 2 3 5 6 3 4 5 2 4 2 6 5 6 8 8 6 7 7 7 5 9 16 18 19
6 5 4 4 4 5 6 7 7 8 7 11 15 16 17 18 13 10 9 8 8 8 7 6 6 6 7 11 9 9 9 9 15 17 17 12 8 8 8 7 7 6 6 4 3 4 8 8 8 8 8 7 7 7 7 6 5 1 3 3 2 2 2 3 4 5 6 3 1 2 3 3 6 6 7 7 7 3 4 6 7 5 9 11 17
4 4 4 4 4 3 4 4 6 6 5 8 14 16 17 17 12 7 8 8 9 7 7 7 5 6 6 8 11 9 8 10 17 17 18 12 8 8 9 8 8 9 9 7 7 6 5 4 2 1 0 1 1 0 1 4 5 4 1 2 3 2 2 3 3 5 5 3 1 4 5 5 6 6 7 8 4 5 1 5 8 5 4 5 7
Wind_Direction
172 183 178 205 149 155 161 186 176 153 181 190 183 235 254 233 91 46 3 343 316 302 131 298 320 327 95 75 17 307 316 49 73 58 36 108 101 94 92 74 62 52 42 37 37 39 38 38 39 40 43 47 47 49 51 48 47 46 44 42 38 36 33 30 27 24 21 18 15 10 7 5 2 360 358 357 356 354 353 351 348 346 344 342 340
173 184 163 179 151 196 191 152 190 168 193 198 214 208 294 31 57 50 26 0 345 323 325 206 257 93 103 95 304 272 283 93 85 62 47 85 118 112 107 94 80 64 49 44 42 42 43 42 45 47 49 54 53 54 53 51 47 46 43 41 38 34 31 29 25 22 17 15 11 6 3 1 359 357 357 355 354 352 351 349 346 343 341 338 337
171 168 161 154 165 181 206 183 203 177 188 217 156 105 338 45 99 87 45 347 318 323 332 12 327 84 122 112 245 263 331 92 78 67 58 8 115 133 118 103 91 73 56 54 48 45 46 48 52 52 51 55 57 57 55 51 47 43 40 39 37 33 29 26 22 17 13 10 6 3 1 359 358 356 355 354 352 349 347 344 341 339 336 335 334
163 167 165 163 178 189 200 175 205 201 157 98 56 25 355 303 297 143 187 222 250 270 280 305 309 59 91 206 229 250 81 75 82 86 77 3 50 113 128 108 96 81 60 62 53 49 50 54 53 54 55 54 56 56 54 50 44 41 40 38 35 31 27 22 18 13 8 5 3 1 359 358 356 354 352 351 348 346 343 341 339 337 336 334 333
146 171 163 178 177 195 190 180 195 148 110 111 114 319 287 276 261 189 190 221 235 266 324 355 68 274 309 245 201 102 92 86 81 59 36 40 64 50 83 115 102 89 74 71 57 50 51 55 55 54 57 56 54 53 52 48 44 41 40 36 31 27 23 18 13 8 5 3 0 359 357 355 354 352 350 348 346 343 342 340 338 337 336 335 334
154 153 205 189 184 162 183 179 183 122 132 143 176 206 233 240 211 249 255 238 231 109 71 331 308 348 15 319 31 112 91 90 99 77 18 76 72 68 64 61 100 116 89 76 75 53 54 55 56 56 56 55 54 52 51 47 44 41 37 32 28 22 18 13 9 6 4 1 359 357 356 354 352 350 348 346 344 343 341 341 340 339 337 335 332
165 159 194 213 166 173 198 191 174 143 161 214 197 199 205 208 172 89 356 321 287 141 163 226 243 64 355 352 57 33 81 103 84 62 34 77 69 81 79 62 28 84 124 92 85 86 64 60 57 56 57 55 51 50 48 46 44 40 33 27 23 18 15 10 7 4 3 1 359 357 355 353 351 348 346 345 344 344 344 341 340 338 335 334 333
190 162 181 211 180 184 184 196 155 134 194 255 139 150 266 134 113 119 83 313 21 21 48 14 26 69 353 16 60 31 82 91 94 75 62 60 61 88 88 65 53 52 57 80 97 100 98 74 67 57 55 55 52 47 45 44 40 37 30 23 18 14 11 9 6 5 3 1 359 357 355 352 350 349 348 348 346 346 344 341 339 337 337 336 334
193 183 170 195 205 197 210 170 145 157 201 238 173 202 173 97 91 154 167 227 326 51 27 28 352 20 44 354 50 65 99 89 69 99 78 65 57 61 73 73 65 51 61 57 69 91 105 94 78 73 64 58 52 48 43 39 37 32 27 19 14 11 9 8 6 5 3 360 358 356 354 353 352 352 351 349 348 345 343 342 340 338 338 337 334
188 188 198 196 195 199 213 154 159 166 205 235 201 191 107 115 122 123 147 139 77 59 32 352 333 325 152 260 60 69 101 106 100 95 95 102 82 70 72 79 74 59 74 68 45 51 93 95 80 74 71 70 58 49 43 36 31 27 23 16 11 9 8 7 7 6 2 0 359 357 356 355 354 353 351 349 347 345 343 342 340 339 338 336 334
187 181 194 219 211 194 193 208 157 171 185 193 225 104 82 62 66 307 69 92 110 108 139 269 296 280 245 185 102 108 90 90 109 99 110 110 94 73 66 47 56 58 79 74 49 54 52 54 55 62 57 63 69 57 48 37 26 24 19 12 8 7 6 7 7 6 2 1 0 359 358 357 355 353 351 348 347 345 344 343 341 339 337 336 334
185 186 191 205 204 198 194 193 163 166 184 183 214 171 154 168 228 215 107 63 65 102 283 0 315 307 205 99 96 96 102 131 106 118 101 89 86 76 70 43 39 34 78 85 71 62 62 54 50 39 40 64 80 67 56 42 27 23 18 10 5 5 5 6 6 6 3 2 0 359 358 356 355 352 350 349 347 346 344 342 341 340 338 336 334
189 184 191 205 201 190 186 195 172 175 190 193 200 150 140 148 177 139 102 71 121 193 284 74 353 325 106 95 80 96 146 138 121 108 93 87 73 75 68 56 27 23 29 96 82 72 69 60 57 49 36 29 53 81 66 55 33 20 17 9 3 4 5 5 4 5 3 1 360 359 358 356 354 352 350 349 348 346 344 343 341 340 338 336 334
187 183 188 192 197 197 188 197 185 182 190 200 158 136 138 138 112 70 96 108 222 192 178 73 329 207 122 102 55 38 230 127 120 107 103 91 90 73 65 67 34 11 23 65 81 88 75 62 64 51 35 41 13 61 66 62 44 27 18 9 3 4 4 4 3 4 2 1 359 359 358 356 354 352 351 350 348 346 345 343 342 339 337 334 333
182 184 188 192 193 194 194 196 186 174 182 203 157 159 162 164 152 157 148 145 159 291 232 129 205 306 345 111 170 98 319 20 103 129 121 116 87 55 60 58 32 11 54 51 47 83 72 57 67 61 27 42 22 55 75 72 68 43 25 9 4 5 3 2 2 2 1 -0 359 358 357 355 354 353 352 350 348 346 345 343 340 338 336 334 334
184 188 195 193 191 195 196 190 187 178 178 183 180 175 171 167 161 171 141 158 181 229 274 185 152 98 197 185 185 136 117 243 167 190 133 132 101 68 51 51 31 11 48 65 25 78 79 66 66 60 40 41 48 57 64 52 38 46 27 1 5 5 3 1 360 360 359 359 359 358 356 355 354 353 351 349 347 346 343 341 339 337 336 335 332
187 189 195 200 194 194 196 194 182 174 167 176 184 189 181 171 165 170 171 171 193 155 243 203 212 145 150 164 117 174 206 176 127 183 129 113 107 94 56 51 32 21 67 47 33 80 94 65 33 20 42 61 57 56 60 46 39 44 19 357 7 4 3 0 358 358 358 360 359 358 356 356 355 352 350 348 346 344 341 339 338 337 336 332 330
192 193 191 193 200 198 196 189 182 182 176 178 185 182 177 166 174 173 182 207 165 157 182 235 235 124 131 169 175 181 160 167 118 179 333 115 138 111 109 69 2 17 39 58 73 57 70 88 47 14 39 73 69 62 58 40 41 36 13 358 7 2 1 0 358 357 359 0 359 357 356 355 353 351 349 347 344 342 340 339 338 336 334 334 332
194 194 190 189 195 197 193 187 184 187 182 176 189 181 174 174 171 175 191 193 154 162 174 195 187 109 133 76 85 30 117 131 186 121 138 207 120 125 138 156 168 343 51 33 97 79 10 80 67 30 29 73 71 69 55 40 37 32 9 5 4 1 1 2 360 359 360 359 358 356 355 353 350 348 347 345 343 341 340 338 336 335 334 331 330
193 192 189 188 192 196 191 190 189 192 176 183 175 168 167 170 173 188 185 166 169 175 177 172 160 214 155 137 141 346 59 74 95 159 156 154 201 26 246 177 150 225 226 66 103 113 39 32 75 43 45 76 83 73 64 41 41 23 8 5 2 360 360 360 358 359 359 357 355 353 352 350 348 348 346 344 342 341 339 338 336 334 331 330 331
193 192 191 189 188 191 184 184 186 168 165 162 164 166 171 173 177 179 178 185 177 176 160 178 160 162 156 155 131 108 71 85 86 80 126 134 176 173 201 278 119 220 223 177 131 150 159 196 170 124 87 86 74 72 51 40 27 20 8 5 359 357 356 356 356 358 356 354 354 352 349 348 348 347 346 344 343 341 339 336 336 331 328 332 336
194 193 193 188 183 183 181 182 179 163 169 170 167 174 178 174 178 180 179 181 183 181 181 173 173 157 169 166 155 140 84 32 40 84 64 98 164 193 181 173 194 243 224 199 159 151 184 170 102 75 87 85 71 62 49 34 29 20 11 5 356 353 353 353 354 356 353 353 354 350 347 348 348 346 345 343 342 340 338 337 334 332 334 335 336
194 198 196 182 177 178 181 180 173 163 170 169 174 177 181 172 176 175 181 185 175 157 143 134 147 153 170 168 184 172 166 168 188 161 141 149 133 276 258 194 186 268 283 198 179 109 115 154 83 47 80 76 69 60 44 30 26 20 19 4 354 350 350 350 353 353 351 353 352 350 349 349 347 345 343 342 341 340 338 337 337 334 338 340 339
197 195 194 182 173 178 176 172 177 169 176 173 175 182 177 170 175 174 175 169 152 147 141 128 137 148 164 173 177 172 139 147 166 154 151 178 147 189 180 312 3 228 261 281 304 297 9 75 110 90 82 82 72 64 44 34 13 15 23 0 349 348 348 348 351 350 349 351 351 351 349 347 345 343 343 342 341 340 339 339 339 335 337 342 343
197 192 190 181 173 174 178 180 177 172 172 174 178 172 174 165 163 165 164 173 171 164 160 166 159 163 173 152 139 114 105 109 118 136 116 122 119 136 275 129 187 300 289 146 219 277 239 248 155 88 98 82 65 58 45 30 7 10 18 359 344 344 347 349 348 347 348 350 351 349 347 345 344 344 344 342 341 342 342 341 340 337 339 342 344
190 193 184 178 175 176 177 178 171 168 175 177 169 167 166 160 158 162 173 178 158 158 153 153 155 158 144 129 112 112 94 78 95 89 107 98 112 149 167 351 175 234 292 232 233 116 305 115 78 98 88 78 71 62 37 23 358 8 13 359 336 337 345 348 345 343 347 348 350 347 346 345 345 344 344 343 344 344 343 341 343 340 343 343 342
193 188 172 176 175 171 178 178 172 169 171 168 165 166 164 156 158 159 164 155 158 151 153 156 156 151 139 131 118 99 98 79 88 89 92 109 139 144 119 108 352 290 262 317 125 170 193 43 93 83 85 80 64 51 33 17 350 17 13 352 337 333 340 342 340 342 345 346 347 347 346 347 346 345 345 346 345 345 342 343 343 340 341 345 344
188 178 183 181 179 178 179 182 172 167 168 163 163 166 163 154 150 152 164 158 155 153 157 149 151 146 134 124 111 111 101 90 88 93 89 103 102 103 114 129 136 231 325 282 2 324 125 110 34 65 84 72 57 47 25 3 358 27 8 344 337 330 335 339 340 342 342 345 348 348 347 347 347 347 346 347 346 345 344 344 343 344 343 345 346
177 183 187 191 188 182 176 175 169 164 162 161 159 160 162 151 156 156 161 161 149 155 148 144 144 135 130 129 128 121 111 98 88 91 99 83 91 105 118 145 156 142 191 195 268 187 280 121 142 13 61 63 50 34 15 330 8 24 357 340 327 328 326 342 340 341 341 345 349 349 348 348 349 348 347 347 347 345 344 346 346 348 347 343 344
179 184 186 191 192 188 176 170 168 163 163 160 159 157 155 146 159 158 155 145 137 137 145 137 143 134 126 120 122 119 121 105 110 107 105 112 104 97 107 114 122 161 179 157 250 210 204 342 75 124 24 52 44 13 359 359 3 9 358 339 327 315 341 344 341 341 343 345 349 350 349 350 350 349 348 349 348 347 347 347 350 349 345 345 345
179 181 187 188 187 189 181 166 164 164 161 159 154 151 150 142 142 141 145 139 139 151 153 143 149 138 134 126 124 124 121 119 111 106 103 101 113 108 92 97 102 138 162 143 155 287 131 147 45 80 83 42 48 21 7 19 348 14 14 339 321 343 354 332 340 343 344 346 348 351 350 350 351 350 350 351 348 349 349 350 351 349 346 347 351
185 183 184 186 183 180 176 168 164 162 160 155 152 149 146 148 146 145 152 141 144 155 151 142 146 143 134 131 137 134 130 122 126 129 116 98 98 108 119 119 131 118 118 151 160 239 324 114 133 35 59 54 29 39 342 349 342 31 3 332 330 13 345 328 330 340 347 347 349 352 350 350 351 352 352 353 350 351 351 352 353 350 349 353 355
176 179 184 186 181 179 172 170 166 165 158 155 155 148 145 147 150 148 148 147 148 154 145 140 140 139 135 132 137 137 134 135 141 133 122 121 103 106 97 108 137 144 139 154 183 260 304 41 67 37 346 62 351 17 13 338 0 359 354 328 6 13 343 334 332 332 346 348 350 353 351 351 352 353 354 354 351 353 352 355 354 354 353 357 358
170 178 182 184 178 177 175 170 169 167 166 164 163 154 149 148 148 149 149 147 149 154 147 147 146 146 138 135 138 140 141 138 139 137 140 140 148 131 139 143 152 150 138 142 180 183 254 326 7 350 359 33 357 305 9 28 4 3 341 334 4 357 347 337 338 333 341 346 350 355 353 351 353 354 355 354 352 354 355 357 357 355 356 360 360
174 173 177 174 175 175 174 170 166 164 163 162 165 156 154 154 154 157 157 154 157 160 157 158 155 147 138 140 144 141 135 134 139 144 145 156 154 147 160 149 146 144 132 126 138 199 252 286 284 12 336 320 298 289 350 57 26 351 341 338 359 330 352 344 334 326 336 345 351 355 355 352 353 354 354 352 352 353 355 357 357 356 355 359 1
169 168 169 173 173 175 172 171 167 165 163 159 160 163 159 156 155 159 160 158 161 165 160 160 158 154 149 143 152 149 142 140 146 148 155 156 153 147 148 162 150 153 153 139 159 151 192 175 302 36 291 321 299 329 24 29 25 338 354 1 333 329 350 341 335 319 336 346 354 355 353 353 353 354 353 352 353 354 355 356 357 356 357 358 2
172 161 169 171 175 173 174 175 172 171 171 165 163 161 159 157 156 158 162 159 160 163 166 164 161 155 156 156 156 153 150 145 154 160 168 169 169 152 164 176 160 165 154 163 200 177 177 228 281 274 272 296 263 331 48 34 353 316 6 10 317 330 351 328 321 333 338 342 357 356 354 353 351 352 351 352 353 354 355 356 355 355 355 357 2
166 173 171 175 177 179 177 179 178 173 167 167 163 162 155 151 151 156 158 156 155 157 161 164 162 161 157 156 157 157 157 161 167 167 167 171 164 161 168 170 159 149 164 198 186 190 183 219 227 296 317 1 346 311 16 40 355 325 321 330 333 359 352 338 330 328 327 343 4 351 347 348 347 348 350 352 352 353 355 354 354 354 354 357 1
169 175 182 178 186 180 179 170 168 165 163 159 158 156 152 153 154 155 155 151 149 151 160 160 160 154 151 152 158 162 163 165 164 169 166 170 170 172 172 161 156 151 178 200 194 174 182 222 263 249 259 303 359 317 321 22 341 18 3 342 12 14 350 341 334 333 330 349 353 352 347 346 348 345 346 350 349 352 353 353 353 355 354 358 1
176 179 176 184 187 182 187 182 171 161 162 160 162 161 157 156 156 159 157 152 148 147 149 151 151 149 149 153 158 161 160 165 164 162 166 169 164 169 170 159 163 163 184 188 148 150 186 221 216 244 279 347 344 336 342 345 306 167 40 15 342 339 344 338 322 318 322 1 342 343 341 338 343 341 343 344 345 349 348 346 346 355 354 358 0
185 188 182 170 162 165 165 174 165 164 165 167 164 162 157 159 158 157 158 151 147 146 145 144 141 139 141 145 150 150 146 149 153 157 165 168 165 168 175 165 172 166 172 146 148 155 201 176 246 315 33 356 303 320 318 339 19 358 348 359 322 312 323 326 321 300 19 1 339 335 341 346 343 340 340 340 339 344 341 340 338 352 354 358 1
174 169 167 169 175 174 169 170 170 162 166 168 173 168 164 161 162 156 153 151 149 150 149 144 141 142 143 139 136 135 136 136 139 143 140 143 156 169 168 165 171 164 163 154 159 181 177 198 208 170 332 274 270 271 332 306 25 11 357 345 333 329 327 312 267 358 31 11 347 337 335 343 347 323 342 339 332 340 337 331 336 349 355 359 1
153 160 161 165 179 175 174 174 174 177 172 171 166 168 167 162 159 160 156 155 152 154 156 155 155 151 141 135 137 140 139 139 142 145 146 141 125 123 128 142 160 165 160 161 185 179 180 174 181 145 200 238 262 256 301 18 24 36 342 333 322 330 349 348 339 331 97 12 343 322 320 347 352 332 336 333 329 334 333 325 338 351 356 0 2
149 141 161 174 171 173 170 181 194 191 189 176 168 168 167 167 167 164 158 154 156 158 161 159 155 152 150 148 151 153 158 156 151 153 157 155 149 144 142 141 141 156 169 157 169 179 176 166 177 193 171 230 233 284 343 39 5 1 332 325 327 338 335 335 322 321 324 357 333 330 314 336 345 340 332 332 331 330 325 327 341 355 0 1 3
140 160 176 161 171 167 168 175 188 185 172 182 172 168 167 168 168 164 161 156 156 162 162 161 158 156 154 153 157 167 167 162 156 160 159 161 163 160 160 164 170 174 185 194 191 167 155 149 167 212 202 204 224 255 97 72 19 328 321 310 325 335 325 312 309 313 322 338 334 335 313 316 355 348 334 328 330 326 324 321 340 357 2 4 4
165 168 163 171 165 172 177 177 179 184 173 181 176 172 170 169 167 162 162 160 159 161 163 162 161 161 163 163 164 170 170 167 167 167 167 166 165 165 170 167 172 189 198 203 204 196 184 173 176 195 238 173 195 126 87 56 346 308 301 303 332 326 318 301 303 308 310 340 10 336 302 324 354 345 336 325 328 323 319 315 341 357 5 5 6
173 178 176 176 178 171 169 166 164 176 191 184 175 173 171 169 166 156 155 153 154 157 161 162 164 166 169 170 171 166 166 170 175 173 170 171 168 172 174 184 190 194 194 197 195 197 196 185 194 204 215 180 132 114 108 140 246 255 278 295 328 315 294 298 305 288 293 328 5 351 306 320 356 339 328 325 324 320 313 311 337 360 6 8 7
138 129 134 145 164 173 171 163 161 169 170 186 177 175 172 168 159 149 155 155 155 158 159 165 166 169 168 168 164 165 170 172 179 178 175 167 168 174 182 185 182 178 189 194 194 187 181 178 174 178 170 208 240 232 231 226 214 191 92 47 347 301 341 319 303 303 284 308 346 37 315 313 339 345 319 322 326 317 314 315 335 2 10 10 9
158 163 172 169 162 161 164 166 169 166 162 184 180 178 176 169 156 154 156 155 157 159 167 167 168 165 171 171 167 163 169 179 183 182 181 177 171 176 175 176 179 191 215 226 207 201 200 205 213 224 237 246 262 276 281 277 264 193 94 40 259 87 342 312 305 316 315 345 328 40 322 308 335 340 321 322 329 301 306 312 318 358 15 13 10
173 175 159 148 156 167 172 181 180 175 179 186 182 182 181 177 168 161 161 158 160 161 160 162 158 166 171 172 167 165 172 179 183 184 183 177 174 175 173 177 187 203 217 205 214 221 207 212 220 230 241 252 262 268 265 258 257 225 119 193 196 111 262 285 292 319 313 328 284 340 13 312 326 336 331 318 303 282 294 318 336 345 13 16 10
150 138 144 151 156 168 180 181 175 174 174 187 189 187 185 180 169 163 158 156 159 167 160 159 160 162 170 169 169 167 171 176 183 185 184 179 176 180 179 177 194 209 212 189 191 191 181 175 200 106 15 275 310 39 221 240 238 241 208 191 184 184 211 250 288 319 330 331 264 30 4 325 344 341 349 332 329 300 257 349 325 338 3 19 13